FW2834 Weather Reports


time (UTC)temp
C
wind
direction
speed
KPH
gust
KPH
rain 1hr
cm
rain 24hr
cm
rain mn
cm
humidity
%
barometer
mb
20260505041601 18 142 0.0 3.2 0.00 0.00 0.00 56 1005.6
20260505041100 18 142 0.0 8.0 0.00 0.00 0.00 55 1005.7
20260505040602 18 88 0.0 8.0 0.00 0.00 0.00 55 1005.7
20260505040105 18 116 0.0 0.0 0.00 0.00 0.00 54 1005.7
20260505035558 18 116 0.0 1.6 0.00 0.00 0.00 55 1005.8
20260505035057 18 116 0.0 3.2 0.00 0.00 0.00 55 1005.8
20260505034558 18 116 0.0 3.2 0.00 0.00 0.00 55 1005.7
20260505034057 18 117 0.0 3.2 0.00 0.00 0.00 55 1005.7
20260505033557 18 115 0.0 1.6 0.00 0.00 0.00 55 1005.7
20260505033059 18 115 0.0 1.6 0.00 0.00 0.00 55 1005.6
20260505032556 18 115 0.0 4.8 0.00 0.00 0.00 55 1005.5
20260505032055 18 115 0.0 4.8 0.00 0.00 0.00 55 1005.6
20260505031558 18 117 0.0 4.8 0.00 0.00 0.00 55 1005.5
20260505031055 18 141 0.0 4.8 0.00 0.00 0.00 55 1005.4
20260505030555 18 140 0.0 4.8 0.00 0.00 0.00 55 1005.4
20260505030100 18 140 0.0 4.8 0.00 0.00 0.00 55 1005.2
20260505025556 18 140 0.0 4.8 0.00 0.00 0.00 55 1005.1
20260505025055 18 140 0.0 4.8 0.00 0.00 0.00 55 1005.0
20260505024555 18 141 0.0 4.8 0.00 0.00 0.00 55 1005.1
20260505024054 18 141 0.0 3.2 0.00 0.00 0.00 55 1005.0
20260505023554 18 141 0.0 3.2 0.00 0.00 0.00 55 1004.9
20260505023058 18 140 0.0 3.2 0.00 0.00 0.00 54 1004.8
20260505022554 18 140 0.0 3.2 0.00 0.00 0.00 54 1004.8
20260505022053 18 140 0.0 3.2 0.00 0.00 0.00 54 1004.8
20260505021557 19 140 0.0 3.2 0.00 0.00 0.00 53 1004.7
20260505021053 19 140 0.0 3.2 0.00 0.00 0.00 53 1004.7
20260505020552 19 145 0.0 3.2 0.00 0.00 0.00 53 1004.5
20260505020056 19 145 0.0 4.8 0.00 0.00 0.00 53 1004.5
20260505015552 19 145 0.0 4.8 0.00 0.00 0.00 53 1004.5
20260505015055 19 148 0.0 4.8 0.00 0.00 0.00 52 1004.5
20260505014552 19 148 0.0 4.8 0.00 0.00 0.00 52 1004.5
20260505014051 19 148 1.6 4.8 0.00 0.00 0.00 52 1004.4
20260505013552 19 151 0.0 4.8 0.00 0.00 0.00 51 1004.4
20260505013051 20 151 1.6 4.8 0.00 0.00 0.00 51 1004.2
20260505012552 20 151 0.0 3.2 0.00 0.00 0.00 51 1004.2
20260505012055 20 151 0.0 3.2 0.00 0.00 0.00 51 1004.2
20260505011554 20 151 0.0 3.2 0.00 0.00 0.00 50 1004.2
20260505011055 20 151 0.0 4.8 0.00 0.00 0.00 49 1004.3
20260505010550 20 153 0.0 3.2 0.00 0.00 0.00 49 1004.2
20260505010053 20 153 0.0 3.2 0.00 0.00 0.00 48 1004.2
20260505005550 21 153 0.0 3.2 0.00 0.00 0.00 48 1004.1
20260505005050 21 153 0.0 3.2 0.00 0.00 0.00 47 1004.0
20260505004550 21 153 0.0 3.2 0.00 0.00 0.00 47 1004.0
20260505004049 21 153 0.0 3.2 0.00 0.00 0.00 46 1004.1
20260505003549 21 153 0.0 4.8 0.00 0.00 0.00 46 1004.1
20260505003050 21 153 0.0 4.8 0.00 0.00 0.00 45 1004.0
20260505002550 21 315 0.0 4.8 0.00 0.00 0.00 45 1004.1
20260505002050 22 90 0.0 0.0 0.00 0.00 0.00 44 1004.1
20260505001549 22 90 0.0 0.0 0.00 0.00 0.00 44 1004.2
20260505001047 22 90 0.0 0.0 0.00 0.00 0.00 44 1004.3
20260505000546 22 90 0.0 3.2 0.00 0.00 0.00 43 1004.3
20260505000049 22 90 0.0 3.2 0.00 0.00 0.00 42 1004.4
20260504235546 22 90 0.0 3.2 0.00 0.00 0.00 42 1004.4
20260504235045 22 94 0.0 3.2 0.00 0.00 0.00 42 1004.5
20260504234545 22 88 0.0 4.8 0.00 0.00 0.00 41 1004.5
20260504234044 23 186 0.0 4.8 0.00 0.00 0.00 41 1004.6
20260504233545 23 286 0.0 4.8 0.00 0.00 0.00 41 1004.7
20260504233045 23 286 0.0 4.8 0.00 0.00 0.00 41 1004.7
20260504232543 23 272 0.0 9.7 0.00 0.00 0.00 41 1004.6
20260504232043 23 267 1.6 11.3 0.00 0.00 0.00 41 1004.7
20260504231543 23 332 1.6 11.3 0.00 0.00 0.00 40 1004.7
20260504231043 23 46 1.6 9.7 0.00 0.00 0.00 41 1004.6
20260504230546 23 270 1.6 9.7 0.00 0.00 0.00 40 1004.8
20260504230043 23 76 1.6 6.4 0.00 0.00 0.00 41 1004.7
20260504225545 23 186 0.0 6.4 0.00 0.00 0.00 41 1004.7
20260504225045 23 288 0.0 4.8 0.00 0.00 0.00 41 1004.8
20260504224543 23 32 1.6 6.4 0.00 0.00 0.00 41 1004.7
20260504224045 23 69 1.6 6.4 0.00 0.00 0.00 41 1004.9
20260504223542 23 88 1.6 6.4 0.00 0.00 0.00 42 1004.9
20260504223141 23 309 1.6 6.4 0.00 0.00 0.00 43 1004.9
20260504222541 23 112 0.0 4.8 0.00 0.00 0.00 46 1004.8
20260504222041 23 111 0.0 3.2 0.00 0.00 0.00 45 1004.8
20260504221543 23 111 0.0 6.4 0.00 0.00 0.00 46 1004.7
20260504221039 23 130 1.6 6.4 0.00 0.00 0.00 45 1004.8
20260504220538 23 133 0.0 3.2 0.00 0.00 0.00 43 1005.0
20260504220041 23 134 0.0 9.7 0.00 0.00 0.00 45 1005.2
20260504215537 23 273 0.0 1.6 0.00 0.00 0.00 45 1005.3
20260504215036 23 273 0.0 1.6 0.00 0.00 0.00 44 1005.4
20260504214546 23 273 0.0 3.2 0.00 0.00 0.00 44 1005.5
20260504214035 24 273 0.0 3.2 0.00 0.00 0.00 43 1005.5
20260504213535 24 270 0.0 6.4 0.00 0.00 0.00 42 1005.5
20260504213042 24 269 0.0 6.4 0.00 0.00 0.00 41 1005.5
20260504212534 24 257 0.0 9.7 0.00 0.00 0.00 42 1005.6
20260504212033 24 256 1.6 9.7 0.00 0.00 0.00 41 1005.6
20260504211532 24 309 0.0 4.8 0.00 0.00 0.00 43 1005.8
20260504211032 24 310 0.0 4.8 0.00 0.00 0.00 43 1005.7
20260504210532 24 309 0.0 9.7 0.00 0.00 0.00 42 1006.0
20260504210031 24 59 1.6 9.7 0.00 0.00 0.00 42 1005.9
20260504205532 24 172 0.0 6.4 0.00 0.00 0.00 41 1005.9
20260504205031 24 115 0.0 6.4 0.00 0.00 0.00 45 1006.0
20260504204529 24 180 0.0 6.4 0.00 0.00 0.00 42 1006.0
20260504204028 24 321 0.0 6.4 0.00 0.00 0.00 43 1006.1
20260504203528 24 119 0.0 8.0 0.00 0.00 0.00 43 1006.2
20260504203027 24 86 1.6 8.0 0.00 0.00 0.00 41 1006.3
20260504202527 24 119 1.6 4.8 0.00 0.00 0.00 42 1006.3
20260504202025 24 186 0.0 4.8 0.00 0.00 0.00 44 1006.3
20260504201524 24 195 0.0 4.8 0.00 0.00 0.00 44 1006.4
20260504201022 23 10 0.0 4.8 0.00 0.00 0.00 46 1006.5
20260504200522 23 256 1.6 4.8 0.00 0.00 0.00 45 1006.5
20260504200034 23 301 0.0 4.8 0.00 0.00 0.00 49 1006.6
20260504195519 23 225 0.0 8.0 0.00 0.00 0.00 47 1006.7
20260504195018 23 204 1.6 8.0 0.00 0.00 0.00 46 1006.8
20260504194520 22 274 0.0 4.8 0.00 0.00 0.00 50 1006.9
20260504194016 22 274 0.0 6.4 0.00 0.00 0.00 49 1007.1
20260504193516 22 306 1.6 6.4 0.00 0.00 0.00 52 1007.3
20260504193014 22 213 0.0 8.0 0.00 0.00 0.00 53 1007.4
20260504192513 21 213 0.0 8.0 0.00 0.00 0.00 51 1007.6
20260504192012 21 305 1.6 6.4 0.00 0.00 0.00 51 1007.4
20260504191527 21 318 1.6 6.4 0.00 0.00 0.00 52 1007.7
20260504191012 21 322 1.6 6.4 0.00 0.00 0.00 52 1007.8
20260504190512 21 306 1.6 8.0 0.00 0.00 0.00 52 1007.8
20260504190012 21 183 0.0 4.8 0.00 0.00 0.00 51 1007.9
20260504185511 21 327 1.6 11.3 0.00 0.00 0.00 51 1008.1
20260504185011 21 284 0.0 11.3 0.00 0.00 0.00 51 1008.1
20260504184514 21 246 0.0 1.6 0.00 0.00 0.00 50 1008.0
20260504184011 21 248 0.0 3.2 0.00 0.00 0.00 51 1008.1
20260504183511 21 250 0.0 4.8 0.00 0.00 0.00 50 1008.0
20260504183024 21 248 0.0 8.0 0.00 0.00 0.00 50 1007.9
20260504182510 21 248 0.0 12.9 0.00 0.00 0.00 51 1007.8
20260504182010 21 173 1.6 8.0 0.00 0.00 0.00 49 1007.7
20260504181513 21 269 1.6 16.1 0.00 0.00 0.00 50 1007.7
20260504181010 21 192 3.2 16.1 0.00 0.00 0.00 47 1007.6
20260504180515 21 159 1.6 8.0 0.00 0.00 0.00 48 1007.4
20260504180010 21 325 1.6 8.0 0.00 0.00 0.00 49 1007.3
20260504175508 21 40 1.6 9.7 0.00 0.00 0.00 49 1007.3
20260504175007 21 295 1.6 6.4 0.00 0.00 0.00 52 1007.3
20260504174506 21 330 1.6 11.3 0.00 0.00 0.00 51 1007.2
20260504174005 21 96 1.6 11.3 0.00 0.00 0.00 52 1007.4
20260504173503 20 277 3.2 8.0 0.00 0.00 0.00 53 1007.5
20260504173004 20 96 1.6 6.4 0.00 0.00 0.00 53 1007.5
20260504172504 20 278 1.6 9.7 0.00 0.00 0.00 52 1007.6
20260504172002 20 244 3.2 12.9 0.00 0.00 0.00 54 1007.3
20260504171701 20 311 1.6 12.9 0.00 0.00 0.00 52 1006.9
20260504171101 20 113 1.6 9.7 0.00 0.00 0.00 54 1006.7
20260504170557 20 96 0.0 9.7 0.00 0.00 0.00 54 1007.4
20260504170105 20 113 1.6 9.7 0.00 0.00 0.00 53 1007.5
20260504151038 17 124 0.0 4.8 0.00 0.00 0.00 59 1008.4
20260504150540 17 124 0.0 4.8 0.00 0.00 0.00 57 1008.3
20260504141029 15 149 1.6 4.8 0.00 0.00 0.00 61 1008.4
20260504140528 15 153 0.0 4.8 0.00 0.00 0.00 61 1008.6
20260504130514 12 142 0.0 3.2 0.00 0.00 0.00 64 1009.0
20260504120104 11 302 0.0 3.2 0.00 0.00 0.00 63 1009.1
20260504110549 10 82 0.0 3.2 0.00 0.00 0.00 62 1008.6
20260504100542 10 99 0.0 1.6 0.00 0.00 0.00 60 1009.1
20260504081530 10 104 0.0 4.8 0.00 0.00 0.00 57 1009.8
20260504081030 10 106 0.0 4.8 0.00 0.00 0.00 56 1010.0
20260504080529 10 107 0.0 1.6 0.00 0.00 0.00 56 1010.0
20260504050513 11 157 0.0 4.8 0.00 0.00 0.00 55 1011.8
20260504050012 10 109 0.0 4.8 0.00 0.00 0.00 56 1011.7
20260504045510 10 109 0.0 6.4 0.00 0.00 0.00 55 1011.8
20260504045012 10 119 0.0 4.8 0.00 0.00 0.00 55 1011.9
20260504044519 10 105 0.0 4.8 0.00 0.00 0.00 55 1012.0
20260504044013 10 119 0.0 6.4 0.00 0.00 0.00 55 1011.9
20260504043510 10 119 0.0 6.4 0.00 0.00 0.00 55 1011.9
20260504043012 10 111 0.0 9.7 0.00 0.00 0.00 55 1011.9
20260504042509 10 121 1.6 14.5 0.00 0.00 0.00 54 1011.9
20260504042009 10 132 0.0 14.5 0.00 0.00 0.00 55 1012.0